QPF
0.06 0.05 0.05 0.04 0.04 0.03 0.02 0.03 0.03 0.05 0.06 0.04 0.03 0.01 0.01 0.02 0.02 0.02 0.03 0.04 0.04 0.04 0.05 0.04 0.04 0.05 0.05 0.04 0.04 0.03 0.04 0.07 0.11 0.14 0.18 0.21 0.21 0.17
0.06 0.07 0.05 0.04 0.04 0.04 0.03 0.03 0.04 0.04 0.05 0.03 0.02 0.02 0.01 0.02 0.03 0.02 0.04 0.04 0.03 0.02 0.03 0.03 0.02 0.03 0.04 0.05 0.04 0.03 0.02 0.03 0.03 0.05 0.07 0.13 0.19 0.20
0.05 0.06 0.05 0.05 0.06 0.06 0.06 0.05 0.04 0.04 0.04 0.03 0.03 0.02 0.03 0.03 0.05 0.06 0.05 0.04 0.03 0.02 0.02 0.01 0.01 0.01 0.01 0.03 0.04 0.03 0.02 0.02 0.02 0.03 0.04 0.07 0.12 0.16
0.05 0.06 0.06 0.05 0.05 0.05 0.06 0.06 0.05 0.04 0.04 0.03 0.02 0.03 0.03 0.03 0.05 0.07 0.07 0.06 0.05 0.03 0.02 0.01 0.01 0.01 0.01 0.01 0.02 0.02 0.02 0.02 0.02 0.03 0.05 0.07 0.08 0.11
0.06 0.06 0.05 0.05 0.05 0.05 0.05 0.04 0.04 0.03 0.03 0.03 0.02 0.02 0.02 0.03 0.05 0.05 0.06 0.08 0.06 0.04 0.03 0.02 0.02 0.02 0.02 0.01 0.01 0.02 0.02 0.03 0.03 0.04 0.07 0.08 0.06 0.06
0.05 0.06 0.06 0.06 0.05 0.06 0.06 0.05 0.04 0.04 0.04 0.03 0.02 0.02 0.03 0.03 0.04 0.04 0.04 0.05 0.05 0.05 0.06 0.05 0.04 0.04 0.03 0.03 0.03 0.02 0.03 0.04 0.05 0.07 0.08 0.05 0.04 0.05
0.04 0.04 0.05 0.06 0.06 0.06 0.05 0.04 0.04 0.04 0.04 0.04 0.04 0.04 0.04 0.05 0.04 0.04 0.04 0.04 0.05 0.05 0.05 0.05 0.04 0.04 0.05 0.06 0.06 0.05 0.05 0.07 0.09 0.09 0.05 0.02 0.02 0.03
0.06 0.06 0.06 0.06 0.05 0.04 0.03 0.04 0.05 0.05 0.06 0.06 0.06 0.06 0.06 0.06 0.05 0.05 0.04 0.04 0.04 0.04 0.05 0.04 0.04 0.06 0.07 0.09 0.10 0.09 0.10 0.10 0.07 0.04 0.02 0.01 0.02 0.02
0.06 0.06 0.06 0.05 0.05 0.05 0.05 0.04 0.04 0.04 0.04 0.05 0.05 0.05 0.06 0.07 0.07 0.06 0.05 0.04 0.04 0.03 0.04 0.04 0.04 0.06 0.08 0.11 0.12 0.15 0.12 0.07 0.04 0.02 0.01 0.01 0.02 0.02
0.06 0.06 0.07 0.07 0.06 0.05 0.05 0.04 0.03 0.03 0.03 0.02 0.03 0.03 0.04 0.06 0.06 0.06 0.06 0.04 0.03 0.02 0.04 0.04 0.05 0.08 0.09 0.11 0.13 0.13 0.08 0.06 0.05 0.03 0.01 0.01 0.02 0.03
0.06 0.06 0.06 0.07 0.08 0.07 0.05 0.04 0.04 0.04 0.03 0.03 0.02 0.02 0.02 0.02 0.03 0.04 0.04 0.04 0.03 0.02 0.04 0.06 0.06 0.10 0.11 0.09 0.10 0.11 0.06 0.05 0.05 0.04 0.03 0.01 0.02 0.04
0.06 0.06 0.06 0.06 0.07 0.05 0.04 0.04 0.03 0.04 0.04 0.04 0.03 0.03 0.02 0.02 0.03 0.03 0.04 0.04 0.04 0.04 0.04 0.09 0.09 0.11 0.11 0.07 0.07 0.11 0.08 0.06 0.05 0.04 0.03 0.03 0.04 0.04
0.05 0.05 0.04 0.03 0.02 0.02 0.03 0.04 0.03 0.04 0.04 0.03 0.02 0.02 0.02 0.02 0.02 0.02 0.03 0.04 0.04 0.04 0.04 0.08 0.09 0.11 0.12 0.10 0.08 0.10 0.10 0.08 0.08 0.07 0.05 0.04 0.05 0.06
0.04 0.04 0.04 0.03 0.02 0.02 0.02 0.02 0.03 0.03 0.03 0.02 0.02 0.02 0.02 0.01 0.02 0.02 0.03 0.04 0.03 0.03 0.05 0.08 0.08 0.10 0.11 0.12 0.11 0.11 0.10 0.09 0.09 0.08 0.06 0.06 0.06 0.09
0.03 0.02 0.03 0.04 0.03 0.02 0.03 0.02 0.02 0.02 0.02 0.02 0.01 0.01 0.02 0.02 0.02 0.02 0.03 0.03 0.04 0.03 0.04 0.06 0.07 0.09 0.10 0.12 0.13 0.12 0.11 0.10 0.10 0.10 0.10 0.09 0.08 0.09
0.03 0.03 0.03 0.02 0.02 0.01 0.02 0.02 0.02 0.02 0.02 0.03 0.02 0.02 0.02 0.03 0.03 0.03 0.03 0.03 0.04 0.04 0.04 0.05 0.06 0.08 0.09 0.11 0.12 0.12 0.11 0.10 0.11 0.11 0.10 0.10 0.10 0.11
0.01 0.01 0.02 0.03 0.03 0.03 0.03 0.03 0.03 0.03 0.03 0.02 0.02 0.02 0.03 0.03 0.04 0.03 0.03 0.04 0.05 0.05 0.06 0.06 0.07 0.09 0.10 0.11 0.10 0.10 0.10 0.10 0.10 0.10 0.10 0.10 0.10 0.12
0.01 0.01 0.02 0.03 0.04 0.04 0.04 0.05 0.05 0.05 0.04 0.04 0.04 0.04 0.04 0.04 0.05 0.05 0.06 0.07 0.07 0.06 0.07 0.07 0.08 0.09 0.09 0.09 0.09 0.09 0.10 0.12 0.13 0.13 0.11 0.09 0.09 0.10
0.00 0.01 0.02 0.02 0.03 0.04 0.04 0.04 0.04 0.05 0.05 0.06 0.06 0.06 0.05 0.05 0.05 0.06 0.07 0.08 0.08 0.07 0.07 0.06 0.07 0.09 0.09 0.09 0.08 0.06 0.06 0.08 0.09 0.10 0.12 0.10 0.08 0.07
0.01 0.01 0.02 0.03 0.04 0.04 0.04 0.05 0.05 0.04 0.04 0.05 0.06 0.06 0.05 0.05 0.05 0.05 0.06 0.08 0.08 0.06 0.06 0.06 0.06 0.06 0.07 0.08 0.10 0.09 0.07 0.06 0.07 0.07 0.08 0.08 0.06 0.07
0.03 0.03 0.04 0.04 0.04 0.04 0.04 0.04 0.04 0.04 0.03 0.02 0.03 0.03 0.03 0.04 0.04 0.05 0.06 0.07 0.07 0.07 0.06 0.06 0.07 0.08 0.08 0.09 0.09 0.09 0.08 0.07 0.06 0.06 0.06 0.06 0.05 0.06
0.03 0.03 0.03 0.03 0.03 0.05 0.06 0.05 0.04 0.05 0.04 0.03 0.03 0.04 0.04 0.05 0.06 0.06 0.06 0.08 0.09 0.08 0.08 0.08 0.09 0.08 0.07 0.07 0.07 0.08 0.08 0.07 0.06 0.06 0.04 0.04 0.04 0.04
0.03 0.03 0.02 0.01 0.02 0.02 0.02 0.03 0.03 0.03 0.03 0.03 0.03 0.04 0.05 0.05 0.05 0.06 0.07 0.08 0.08 0.09 0.09 0.09 0.09 0.09 0.08 0.08 0.07 0.07 0.06 0.06 0.07 0.06 0.04 0.03 0.04 0.04
MSLP
1006.79 1006.67 1006.64 1006.69 1006.80 1006.95 1007.12 1007.29 1007.47 1007.64 1007.82 1007.99 1008.18 1008.36 1008.54 1008.71 1008.89 1009.07 1009.28 1009.54 1009.88 1010.31 1010.83 1011.43 1012.09 1012.77 1013.45 1014.06 1014.60 1015.06 1015.44 1015.78 1016.09 1016.41 1016.77 1017.18 1017.64 1018.12
1007.29 1007.20 1007.17 1007.18 1007.22 1007.28 1007.34 1007.41 1007.48 1007.57 1007.68 1007.81 1007.98 1008.16 1008.37 1008.58 1008.80 1009.03 1009.29 1009.58 1009.94 1010.37 1010.87 1011.44 1012.05 1012.67 1013.28 1013.85 1014.35 1014.78 1015.16 1015.49 1015.80 1016.13 1016.48 1016.87 1017.30 1017.74
1007.67 1007.63 1007.61 1007.59 1007.58 1007.55 1007.52 1007.49 1007.46 1007.47 1007.50 1007.59 1007.73 1007.92 1008.14 1008.39 1008.66 1008.94 1009.24 1009.57 1009.94 1010.36 1010.84 1011.36 1011.91 1012.48 1013.04 1013.55 1014.02 1014.44 1014.81 1015.15 1015.47 1015.80 1016.15 1016.52 1016.91 1017.31
1007.82 1007.81 1007.81 1007.79 1007.75 1007.67 1007.58 1007.48 1007.39 1007.34 1007.33 1007.39 1007.53 1007.72 1007.96 1008.24 1008.54 1008.85 1009.18 1009.53 1009.89 1010.29 1010.73 1011.19 1011.69 1012.19 1012.69 1013.16 1013.61 1014.01 1014.38 1014.73 1015.07 1015.40 1015.75 1016.11 1016.47 1016.83
1007.67 1007.69 1007.70 1007.69 1007.65 1007.57 1007.47 1007.35 1007.26 1007.19 1007.19 1007.26 1007.40 1007.61 1007.87 1008.17 1008.49 1008.81 1009.14 1009.47 1009.80 1010.16 1010.53 1010.94 1011.36 1011.80 1012.24 1012.68 1013.09 1013.49 1013.86 1014.22 1014.57 1014.92 1015.26 1015.60 1015.94 1016.27
1007.28 1007.30 1007.32 1007.32 1007.30 1007.25 1007.18 1007.11 1007.05 1007.03 1007.06 1007.17 1007.34 1007.58 1007.86 1008.17 1008.48 1008.79 1009.09 1009.38 1009.66 1009.95 1010.26 1010.59 1010.94 1011.32 1011.71 1012.10 1012.49 1012.88 1013.26 1013.63 1013.99 1014.35 1014.69 1015.02 1015.34 1015.64
1006.77 1006.76 1006.77 1006.78 1006.78 1006.78 1006.77 1006.76 1006.77 1006.83 1006.93 1007.09 1007.31 1007.57 1007.87 1008.17 1008.47 1008.74 1008.99 1009.23 1009.45 1009.67 1009.91 1010.16 1010.45 1010.77 1011.11 1011.47 1011.85 1012.23 1012.61 1012.98 1013.35 1013.71 1014.05 1014.38 1014.68 1014.97
1006.31 1006.24 1006.21 1006.21 1006.22 1006.25 1006.29 1006.35 1006.45 1006.58 1006.75 1006.97 1007.23 1007.51 1007.81 1008.10 1008.37 1008.60 1008.81 1008.98 1009.15 1009.31 1009.48 1009.68 1009.92 1010.19 1010.50 1010.83 1011.19 1011.57 1011.94 1012.32 1012.69 1013.05 1013.39 1013.71 1014.01 1014.29
1006.07 1005.91 1005.80 1005.75 1005.73 1005.77 1005.83 1005.94 1006.08 1006.27 1006.49 1006.75 1007.03 1007.33 1007.62 1007.89 1008.13 1008.32 1008.49 1008.63 1008.75 1008.87 1009.01 1009.19 1009.39 1009.64 1009.93 1010.25 1010.59 1010.95 1011.33 1011.69 1012.06 1012.41 1012.75 1013.07 1013.36 1013.64
1006.16 1005.87 1005.65 1005.51 1005.42 1005.40 1005.44 1005.54 1005.69 1005.89 1006.13 1006.39 1006.68 1006.97 1007.25 1007.49 1007.72 1007.90 1008.05 1008.18 1008.29 1008.42 1008.55 1008.73 1008.93 1009.17 1009.45 1009.76 1010.09 1010.44 1010.79 1011.15 1011.49 1011.83 1012.15 1012.46 1012.75 1013.03
1006.55 1006.13 1005.77 1005.49 1005.30 1005.18 1005.15 1005.19 1005.29 1005.46 1005.67 1005.91 1006.18 1006.45 1006.71 1006.95 1007.17 1007.36 1007.53 1007.67 1007.82 1007.97 1008.14 1008.34 1008.56 1008.81 1009.09 1009.39 1009.71 1010.04 1010.37 1010.69 1011.01 1011.32 1011.63 1011.91 1012.19 1012.45
1007.15 1006.59 1006.09 1005.67 1005.34 1005.10 1004.95 1004.89 1004.92 1005.01 1005.16 1005.36 1005.59 1005.83 1006.08 1006.32 1006.55 1006.77 1006.98 1007.17 1007.37 1007.58 1007.80 1008.04 1008.29 1008.56 1008.85 1009.13 1009.43 1009.73 1010.02 1010.31 1010.59 1010.87 1011.14 1011.40 1011.65 1011.90
1007.79 1007.13 1006.50 1005.94 1005.47 1005.11 1004.83 1004.66 1004.58 1004.59 1004.66 1004.79 1004.98 1005.19 1005.43 1005.68 1005.94 1006.20 1006.46 1006.72 1006.99 1007.25 1007.53 1007.81 1008.09 1008.37 1008.65 1008.93 1009.19 1009.45 1009.70 1009.95 1010.19 1010.43 1010.66 1010.89 1011.13 1011.35
1008.35 1007.60 1006.88 1006.22 1005.64 1005.15 1004.77 1004.49 1004.32 1004.23 1004.23 1004.31 1004.44 1004.63 1004.86 1005.12 1005.41 1005.70 1006.01 1006.33 1006.65 1006.97 1007.29 1007.60 1007.90 1008.18 1008.45 1008.69 1008.93 1009.15 1009.36 1009.56 1009.76 1009.96 1010.17 1010.37 1010.57 1010.77
1008.71 1007.92 1007.15 1006.43 1005.79 1005.23 1004.77 1004.41 1004.16 1004.00 1003.94 1003.95 1004.05 1004.21 1004.43 1004.69 1004.98 1005.31 1005.65 1005.99 1006.35 1006.69 1007.03 1007.35 1007.64 1007.91 1008.15 1008.37 1008.57 1008.75 1008.93 1009.09 1009.27 1009.45 1009.63 1009.82 1010.01 1010.19
1008.87 1008.08 1007.31 1006.58 1005.91 1005.33 1004.83 1004.43 1004.13 1003.93 1003.81 1003.79 1003.84 1003.97 1004.16 1004.40 1004.69 1005.01 1005.34 1005.69 1006.04 1006.38 1006.70 1006.99 1007.27 1007.51 1007.72 1007.90 1008.07 1008.23 1008.39 1008.55 1008.71 1008.89 1009.07 1009.26 1009.45 1009.63
1008.87 1008.12 1007.39 1006.69 1006.05 1005.48 1004.99 1004.58 1004.26 1004.02 1003.87 1003.81 1003.82 1003.91 1004.05 1004.25 1004.50 1004.77 1005.07 1005.37 1005.69 1005.98 1006.26 1006.51 1006.74 1006.95 1007.13 1007.29 1007.45 1007.60 1007.76 1007.93 1008.11 1008.31 1008.52 1008.73 1008.94 1009.15
1008.83 1008.15 1007.48 1006.85 1006.26 1005.73 1005.26 1004.86 1004.54 1004.29 1004.11 1004.00 1003.96 1003.99 1004.07 1004.21 1004.38 1004.58 1004.81 1005.04 1005.28 1005.51 1005.72 1005.92 1006.10 1006.27 1006.42 1006.57 1006.73 1006.90 1007.09 1007.29 1007.52 1007.77 1008.02 1008.28 1008.54 1008.78
1008.86 1008.25 1007.66 1007.09 1006.56 1006.08 1005.65 1005.27 1004.94 1004.67 1004.47 1004.31 1004.22 1004.17 1004.18 1004.23 1004.31 1004.43 1004.56 1004.70 1004.85 1005.00 1005.14 1005.28 1005.41 1005.55 1005.69 1005.84 1006.01 1006.21 1006.44 1006.70 1006.98 1007.29 1007.61 1007.93 1008.25 1008.55
1009.03 1008.48 1007.95 1007.45 1006.97 1006.53 1006.12 1005.75 1005.43 1005.14 1004.89 1004.69 1004.53 1004.41 1004.34 1004.30 1004.29 1004.31 1004.34 1004.40 1004.46 1004.53 1004.61 1004.69 1004.78 1004.89 1005.02 1005.17 1005.37 1005.60 1005.87 1006.19 1006.53 1006.91 1007.29 1007.68 1008.05 1008.41
1009.31 1008.81 1008.33 1007.87 1007.43 1007.01 1006.62 1006.25 1005.91 1005.60 1005.32 1005.07 1004.85 1004.67 1004.52 1004.40 1004.31 1004.25 1004.20 1004.17 1004.16 1004.17 1004.19 1004.22 1004.28 1004.37 1004.49 1004.65 1004.86 1005.11 1005.42 1005.77 1006.17 1006.59 1007.02 1007.47 1007.90 1008.31
1009.64 1009.18 1008.72 1008.29 1007.86 1007.45 1007.06 1006.68 1006.32 1005.99 1005.67 1005.39 1005.13 1004.90 1004.70 1004.53 1004.39 1004.26 1004.16 1004.08 1004.01 1003.97 1003.94 1003.95 1003.97 1004.03 1004.14 1004.29 1004.49 1004.76 1005.07 1005.43 1005.85 1006.29 1006.75 1007.23 1007.69 1008.15
1009.91 1009.47 1009.03 1008.59 1008.17 1007.75 1007.35 1006.96 1006.59 1006.23 1005.91 1005.60 1005.33 1005.08 1004.86 1004.67 1004.50 1004.35 1004.23 1004.11 1004.02 1003.95 1003.89 1003.86 1003.86 1003.89 1003.97 1004.09 1004.27 1004.50 1004.79 1005.13 1005.52 1005.95 1006.41 1006.89 1007.37 1007.85
Thickness
5731 5729 5728 5729 5730 5730 5730 5727 5720 5714 5716 5723 5726 5731 5731 5729 5727 5725 5724 5722 5720 5719 5718 5717 5716 5715 5715 5715 5715 5715 5716 5717 5718 5718 5719 5719 5719 5721
5726 5724 5722 5723 5723 5724 5723 5723 5720 5715 5711 5716 5719 5723 5724 5724 5721 5720 5719 5718 5716 5715 5713 5712 5711 5711 5710 5710 5711 5711 5712 5712 5713 5714 5715 5715 5716 5717
5720 5718 5717 5717 5716 5716 5716 5715 5714 5711 5706 5709 5712 5715 5715 5714 5713 5713 5712 5712 5711 5710 5709 5708 5707 5706 5706 5706 5706 5706 5706 5707 5708 5709 5710 5711 5712 5712
5713 5712 5711 5711 5709 5709 5708 5706 5705 5705 5702 5699 5702 5704 5705 5706 5706 5705 5705 5707 5706 5706 5705 5704 5703 5702 5701 5701 5701 5701 5701 5702 5703 5704 5705 5707 5708 5708
5708 5707 5705 5704 5702 5702 5701 5699 5699 5700 5698 5695 5694 5696 5696 5697 5697 5696 5697 5698 5700 5701 5700 5699 5698 5697 5697 5697 5697 5697 5698 5698 5699 5700 5701 5702 5703 5704
5703 5702 5701 5699 5697 5696 5695 5693 5692 5690 5689 5688 5687 5687 5687 5688 5687 5685 5686 5688 5690 5693 5693 5693 5692 5692 5692 5693 5693 5694 5694 5694 5695 5696 5697 5697 5698 5699
5697 5695 5695 5694 5693 5691 5689 5686 5685 5683 5681 5679 5678 5678 5677 5676 5676 5677 5677 5679 5682 5684 5684 5686 5686 5686 5687 5688 5688 5689 5690 5690 5691 5691 5691 5692 5693 5694
5689 5688 5688 5687 5686 5684 5683 5680 5678 5675 5672 5670 5669 5668 5668 5669 5669 5669 5668 5669 5670 5676 5676 5678 5681 5681 5683 5684 5685 5686 5687 5687 5686 5685 5686 5686 5687 5688
5682 5681 5681 5682 5678 5677 5675 5674 5672 5670 5668 5665 5662 5662 5662 5663 5662 5661 5661 5661 5662 5668 5668 5669 5673 5674 5679 5681 5682 5682 5683 5682 5681 5680 5680 5680 5680 5681
5677 5676 5673 5671 5670 5668 5668 5666 5665 5664 5663 5661 5660 5659 5660 5659 5657 5656 5655 5657 5659 5662 5662 5660 5666 5668 5673 5674 5675 5676 5676 5676 5675 5674 5674 5674 5674 5674
5670 5668 5666 5664 5661 5660 5660 5658 5657 5657 5658 5657 5656 5655 5654 5653 5652 5650 5649 5648 5649 5654 5657 5656 5659 5661 5663 5665 5667 5668 5668 5668 5668 5668 5668 5668 5667 5666
5663 5661 5659 5657 5654 5652 5651 5650 5649 5649 5650 5650 5648 5648 5648 5647 5646 5644 5643 5642 5643 5645 5651 5650 5652 5652 5653 5658 5660 5660 5659 5660 5660 5660 5660 5660 5659 5657
5656 5654 5652 5650 5647 5645 5644 5644 5643 5643 5643 5642 5643 5643 5643 5643 5642 5641 5640 5638 5638 5639 5644 5644 5644 5645 5644 5646 5650 5653 5653 5653 5653 5652 5652 5652 5651 5650
5648 5647 5645 5642 5641 5640 5639 5639 5638 5636 5637 5637 5637 5637 5636 5636 5636 5636 5636 5635 5635 5635 5637 5637 5636 5636 5636 5636 5639 5643 5645 5647 5647 5646 5646 5645 5644 5643
5641 5640 5637 5636 5635 5635 5634 5633 5632 5631 5631 5631 5631 5631 5631 5631 5631 5630 5630 5630 5630 5631 5632 5632 5631 5631 5630 5630 5631 5634 5636 5638 5640 5639 5639 5638 5637 5636
5634 5633 5632 5631 5629 5629 5629 5628 5627 5627 5626 5626 5625 5626 5626 5625 5624 5623 5622 5622 5622 5623 5626 5627 5626 5626 5626 5627 5626 5626 5627 5628 5630 5631 5630 5631 5631 5631
5626 5627 5627 5626 5625 5625 5625 5624 5623 5622 5620 5619 5619 5618 5617 5617 5616 5616 5615 5615 5614 5615 5617 5619 5620 5621 5621 5620 5619 5619 5619 5620 5622 5622 5622 5622 5623 5624
5621 5622 5622 5621 5620 5619 5619 5618 5617 5615 5614 5613 5612 5611 5610 5609 5608 5608 5608 5606 5607 5609 5609 5610 5611 5610 5611 5612 5611 5611 5612 5612 5613 5614 5614 5613 5613 5615
5618 5618 5617 5616 5614 5614 5613 5611 5610 5609 5607 5606 5605 5604 5603 5602 5601 5601 5600 5600 5601 5601 5602 5603 5603 5602 5601 5601 5603 5604 5603 5604 5604 5604 5606 5606 5606 5607
5614 5613 5611 5610 5609 5608 5606 5605 5603 5602 5601 5599 5598 5597 5596 5595 5594 5593 5593 5592 5593 5594 5595 5596 5596 5596 5595 5595 5595 5595 5596 5596 5596 5596 5597 5598 5598 5599
5610 5608 5606 5605 5604 5602 5600 5598 5597 5596 5594 5593 5591 5590 5589 5588 5586 5586 5586 5585 5585 5586 5586 5587 5589 5590 5591 5590 5588 5588 5589 5589 5589 5589 5590 5590 5591 5591
5603 5602 5600 5599 5597 5596 5594 5592 5591 5589 5587 5585 5584 5583 5582 5581 5580 5579 5579 5578 5578 5579 5580 5581 5583 5583 5584 5583 5582 5582 5582 5582 5582 5582 5582 5584 5584 5585
5597 5596 5595 5593 5591 5589 5587 5585 5583 5581 5579 5577 5575 5575 5575 5574 5573 5573 5572 5572 5572 5573 5573 5574 5576 5576 5577 5577 5577 5577 5578 5577 5577 5576 5576 5577 5578 5580